TimeCDT,TemperatureF,Dew PointF,Humidity,Sea Level PressureIn,VisibilityMPH,Wind Direction,Wind SpeedMPH,Gust SpeedMPH,PrecipitationIn,Events,Conditions,WindDirDegrees,DateUTC
12:15 AM,55.8,53.6,92,30.09,10.0,Calm,Calm,-,N/A,,Clear,0,2013-07-29 05:15:00
12:35 AM,56.3,54.0,92,30.10,10.0,Calm,Calm,-,N/A,,Clear,0,2013-07-29 05:35:00
12:55 AM,55.2,53.4,94,30.10,10.0,Calm,Calm,-,N/A,,Clear,0,2013-07-29 05:55:00
1:15 AM,54.7,52.9,94,30.10,10.0,Calm,Calm,-,N/A,,Clear,0,2013-07-29 06:15:00
1:35 AM,54.9,52.9,93,30.10,10.0,Calm,Calm,-,N/A,,Clear,0,2013-07-29 06:35:00
1:55 AM,53.8,52.0,94,30.10,10.0,WSW,3.5,-,N/A,,Clear,240,2013-07-29 06:55:00
2:15 AM,53.8,52.2,94,30.10,10.0,SW,3.5,-,N/A,,Clear,230,2013-07-29 07:15:00
2:35 AM,53.8,52.3,95,30.10,10.0,Calm,Calm,-,N/A,,Clear,0,2013-07-29 07:35:00
2:55 AM,53.8,52.2,94,30.11,10.0,Calm,Calm,-,N/A,,Clear,0,2013-07-29 07:55:00
3:15 AM,53.6,52.0,94,30.11,10.0,WNW,3.5,-,N/A,,Clear,290,2013-07-29 08:15:00
3:35 AM,53.6,52.0,94,30.11,10.0,Calm,Calm,-,N/A,,Clear,0,2013-07-29 08:35:00
3:55 AM,52.7,51.1,94,30.12,10.0,Calm,Calm,-,N/A,,Clear,0,2013-07-29 08:55:00
4:15 AM,52.2,50.5,94,30.12,10.0,Calm,Calm,-,N/A,,Clear,0,2013-07-29 09:15:00
4:35 AM,51.6,50.2,95,30.13,10.0,Calm,Calm,-,N/A,,Clear,0,2013-07-29 09:35:00
4:55 AM,51.8,50.4,95,30.13,10.0,WSW,3.5,-,N/A,,Clear,250,2013-07-29 09:55:00
5:15 AM,51.8,50.4,95,30.13,10.0,Calm,Calm,-,N/A,,Clear,0,2013-07-29 10:15:00
5:35 AM,51.8,50.2,94,30.14,10.0,Calm,Calm,-,N/A,,Clear,0,2013-07-29 10:35:00
5:55 AM,51.1,49.6,95,30.14,10.0,Calm,Calm,-,N/A,,Clear,0,2013-07-29 10:55:00
6:15 AM,50.9,49.3,94,30.15,10.0,Calm,Calm,-,N/A,,Clear,0,2013-07-29 11:15:00
6:35 AM,52.7,50.9,94,30.16,10.0,Calm,Calm,-,N/A,,Clear,0,2013-07-29 11:35:00
6:55 AM,53.2,51.4,94,30.17,10.0,Calm,Calm,-,N/A,,Clear,0,2013-07-29 11:55:00
7:15 AM,55.6,54.0,94,30.17,10.0,Calm,Calm,-,N/A,,Clear,0,2013-07-29 12:15:00
7:35 AM,59.0,56.3,91,30.17,10.0,Calm,Calm,-,N/A,,Clear,0,2013-07-29 12:35:00
7:55 AM,61.0,57.9,90,30.17,10.0,Calm,Calm,-,N/A,,Clear,0,2013-07-29 12:55:00
8:15 AM,63.5,58.6,84,30.18,10.0,Calm,Calm,-,N/A,,Clear,0,2013-07-29 13:15:00
8:35 AM,65.3,57.7,76,30.18,10.0,Calm,Calm,-,N/A,,Clear,0,2013-07-29 13:35:00
8:55 AM,67.8,57.6,70,30.18,10.0,Calm,Calm,-,N/A,,Clear,0,2013-07-29 13:55:00
9:15 AM,68.9,54.3,60,30.18,10.0,Calm,Calm,-,N/A,,Clear,0,2013-07-29 14:15:00
9:35 AM,70.0,56.1,61,30.18,10.0,Calm,Calm,-,N/A,,Clear,0,2013-07-29 14:35:00
9:55 AM,70.9,56.5,60,30.18,10.0,Calm,Calm,-,N/A,,Clear,0,2013-07-29 14:55:00
10:15 AM,70.7,55.9,59,30.18,10.0,Calm,Calm,-,N/A,,Clear,0,2013-07-29 15:15:00
10:35 AM,72.7,56.7,57,30.18,10.0,SSE,4.6,-,N/A,,Clear,160,2013-07-29 15:35:00
10:55 AM,73.0,55.8,55,30.19,10.0,Calm,Calm,-,N/A,,Clear,0,2013-07-29 15:55:00
11:15 AM,73.8,55.0,52,30.18,10.0,Calm,Calm,-,N/A,,Clear,0,2013-07-29 16:15:00
11:35 AM,73.6,55.0,52,30.19,10.0,Calm,Calm,-,N/A,,Clear,0,2013-07-29 16:35:00
11:55 AM,74.3,54.5,50,30.18,10.0,South,3.5,-,N/A,,Clear,190,2013-07-29 16:55:00
12:15 PM,74.3,56.8,54,30.18,10.0,SE,5.8,-,N/A,,Clear,140,2013-07-29 17:15:00
12:35 PM,75.0,57.0,53,30.18,10.0,SSE,3.5,-,N/A,,Clear,150,2013-07-29 17:35:00
12:55 PM,75.7,58.5,55,30.17,10.0,Calm,Calm,-,N/A,,Clear,0,2013-07-29 17:55:00
1:15 PM,75.4,55.8,50,30.18,10.0,Calm,Calm,-,N/A,,Scattered Clouds,0,2013-07-29 18:15:00
1:35 PM,77.4,56.5,48,30.18,10.0,SSW,3.5,-,N/A,,Scattered Clouds,200,2013-07-29 18:35:00
1:55 PM,78.1,55.9,46,30.17,10.0,West,3.5,-,N/A,,Scattered Clouds,270,2013-07-29 18:55:00
2:15 PM,79.0,57.4,47,30.17,10.0,SE,4.6,-,N/A,,Scattered Clouds,140,2013-07-29 19:15:00
2:35 PM,78.4,55.4,45,30.17,10.0,Calm,Calm,-,N/A,,Scattered Clouds,0,2013-07-29 19:35:00
2:55 PM,78.3,54.7,44,30.17,10.0,Calm,Calm,-,N/A,,Scattered Clouds,0,2013-07-29 19:55:00
3:15 PM,79.0,54.7,43,30.16,10.0,Calm,Calm,-,N/A,,Clear,0,2013-07-29 20:15:00
3:35 PM,78.4,54.1,43,30.17,10.0,Calm,Calm,-,N/A,,Clear,0,2013-07-29 20:35:00
3:55 PM,79.0,55.0,44,30.17,10.0,Calm,Calm,-,N/A,,Clear,0,2013-07-29 20:55:00
4:15 PM,78.8,55.2,44,30.16,10.0,Calm,Calm,-,N/A,,Clear,0,2013-07-29 21:15:00
4:35 PM,79.0,55.4,44,30.16,10.0,South,3.5,-,N/A,,Clear,190,2013-07-29 21:35:00
4:55 PM,78.1,57.7,49,30.16,10.0,SSW,5.8,-,N/A,,Clear,200,2013-07-29 21:55:00
5:15 PM,78.8,58.3,49,30.16,10.0,Calm,Calm,-,N/A,,Clear,0,2013-07-29 22:15:00
5:35 PM,78.1,58.3,50,30.16,10.0,South,3.5,-,N/A,,Clear,190,2013-07-29 22:35:00
5:55 PM,77.7,58.5,51,30.15,10.0,SSE,4.6,-,N/A,,Clear,160,2013-07-29 22:55:00
6:15 PM,77.0,58.6,53,30.15,10.0,South,3.5,-,N/A,,Clear,190,2013-07-29 23:15:00
6:35 PM,76.1,60.6,59,30.15,10.0,SSE,3.5,-,N/A,,Clear,160,2013-07-29 23:35:00
6:55 PM,75.6,60.1,59,30.14,10.0,SSE,3.5,-,N/A,,Scattered Clouds,150,2013-07-29 23:55:00
7:15 PM,75.2,61.2,62,30.15,10.0,SSE,3.5,-,N/A,,Scattered Clouds,150,2013-07-30 00:15:00
7:35 PM,74.7,61.7,64,30.14,10.0,SSE,3.5,-,N/A,,Overcast,150,2013-07-30 00:35:00
7:55 PM,73.4,62.8,69,30.14,10.0,ESE,3.5,-,N/A,,Overcast,120,2013-07-30 00:55:00
8:15 PM,72.3,63.5,74,30.13,10.0,Calm,Calm,-,N/A,,Overcast,0,2013-07-30 01:15:00
8:35 PM,71.6,63.9,76,30.13,10.0,ESE,3.5,-,N/A,,Overcast,120,2013-07-30 01:35:00
8:55 PM,71.4,64.4,78,30.14,10.0,Calm,Calm,-,N/A,,Overcast,0,2013-07-30 01:55:00
9:15 PM,70.7,64.6,81,30.14,10.0,ESE,3.5,-,N/A,,Overcast,120,2013-07-30 02:15:00
9:35 PM,70.0,64.6,83,30.15,10.0,SE,3.5,-,N/A,,Overcast,130,2013-07-30 02:35:00
9:55 PM,70.0,63.9,81,30.16,10.0,SE,3.5,-,N/A,,Overcast,130,2013-07-30 02:55:00
10:15 PM,69.8,63.5,80,30.16,10.0,ESE,3.5,-,N/A,,Overcast,110,2013-07-30 03:15:00
10:35 PM,69.1,63.5,82,30.16,10.0,East,3.5,-,N/A,,Overcast,90,2013-07-30 03:35:00
10:55 PM,68.5,63.9,85,30.16,10.0,East,3.5,-,N/A,,Overcast,100,2013-07-30 03:55:00
11:15 PM,68.7,63.5,83,30.15,10.0,ESE,4.6,-,N/A,,Overcast,110,2013-07-30 04:15:00
11:35 PM,69.4,62.4,78,30.16,10.0,ESE,4.6,-,N/A,,Overcast,110,2013-07-30 04:35:00
11:55 PM,70.2,61.5,74,30.16,10.0,ESE,5.8,-,N/A,,Overcast,110,2013-07-30 04:55:00